Terminal Aerodrome Forecast
Issued by NWS

Home | Current Version | Previous Version | Text Only | Print | Product List | Glossary On
Versions: 1 2 3 4 5 6 7 8 9 10 11 12 13 14 15 16 17 18 19 20
000
FTUS44 KCRP 230500
TAFLRD
TAF
KLRD 230526Z 2306/2406 13004KT P6SM SCT080 SCT250
     FM231500 11010KT P6SM SCT050
     FM240300 13012KT P6SM FEW020 SCT050=

USA.gov is the U.S. government's official web portal to all federal, state and local government web resources and services.